This is the latest recevied weather packets stored in our database for station/object N4CRH-13. If no packets are shown the sender has not sent any weather packets the latest 1 day(s).
| Time | Temp. | Humidity | Pressure | Rain* | Wind** | Luminosity | Snow |
|---|---|---|---|---|---|---|---|
| 1777975459 | 5° C | 96% | 1289 hPa | 0 mm | 1.79 m/s, 255° | 0 W/m² | - |
| 1777975155 | 5° C | 96% | 1288.7 hPa | 0 mm | 3.13 m/s, 274° | 0 W/m² | - |
| 1777974852 | 5.56° C | 96% | 1288.7 hPa | 0 mm | 3.13 m/s, 236° | 0 W/m² | - |
| 1777974548 | 5° C | 96% | 1289.1 hPa | 0 mm | 3.13 m/s, 256° | 0 W/m² | - |
| 1777974246 | 5° C | 96% | 1289 hPa | 0 mm | 3.58 m/s, 313° | 0 W/m² | - |
| 1777973941 | 5° C | 95% | 1288.6 hPa | 0 mm | 0 m/s | 0 W/m² | - |
| 1777973638 | 5° C | 94% | 1288.6 hPa | 0 mm | 0 m/s | 0 W/m² | - |
| 1777973336 | 5° C | 94% | 1288.5 hPa | 0 mm | 0 m/s | 0 W/m² | - |
| 1777973034 | 5.56° C | 94% | 1288.5 hPa | 0 mm | 0 m/s | 0 W/m² | - |
| 1777972730 | 5.56° C | 93% | 1288.4 hPa | 0 mm | 0 m/s | 0 W/m² | - |
| 1777972429 | 5.56° C | 92% | 1288.6 hPa | 0 mm | 0 m/s | 0 W/m² | - |
| 1777972126 | 5.56° C | 91% | 1288.6 hPa | 0 mm | 0 m/s | 0 W/m² | - |
| 1777971824 | 6.11° C | 89% | 1288.3 hPa | 0 mm | 0 m/s | 0 W/m² | - |
| 1777971521 | 6.11° C | 89% | 1288.4 hPa | 0 mm | 1.79 m/s, 82° | 0 W/m² | - |
| 1777971219 | 6.11° C | 90% | 1288.5 hPa | 0 mm | 0.89 m/s, 152° | 0 W/m² | - |
| 1777970917 | 6.11° C | 89% | 1288.5 hPa | 0 mm | 0 m/s | 0 W/m² | - |
| 1777970615 | 5.56° C | 90% | 1288.5 hPa | 0 mm | 0.45 m/s, 287° | 0 W/m² | - |
| 1777970312 | 5.56° C | 92% | 1288.5 hPa | 0 mm | 1.34 m/s, 223° | 0 W/m² | - |
| 1777970009 | 5° C | 95% | 1288.7 hPa | 0 mm | 0.45 m/s, 80° | 0 W/m² | - |
| 1777969706 | 5° C | 97% | 1288.7 hPa | 0 mm | 0.89 m/s, 295° | 0 W/m² | - |
| 1777969402 | 5° C | 97% | 1289.1 hPa | 0 mm | 0.45 m/s, 247° | 0 W/m² | - |
* Rain latest hour (hover to see other rain measurements)
** Current wind speed in m/s (hover to see current wind gust speed)